| Temperature (°F) | Max | Average | Min |
|---|---|---|---|
| Max Temperature | 99 | 82.23 | 66 |
| Avg Temperature | 85.15 | 71.9 | 56.11 |
| Min Temperature | 63 | 50.48 | 39 |
| Precipitation (in) | Max | Average | Min | Sum |
|---|---|---|---|---|
| Precipitation | 0 | 0 | 0 | 0 |
| Dew Point (°F) | Max | Average | Min |
|---|---|---|---|
| Dew Point | 50.59 | 44.05 | 34.93 |
| Wind (mph) | Max | Average | Min |
|---|---|---|---|
| Wind | 29 | 12.81 | 7 |
| Gust Wind | 41 | 24.38 | 16 |
| Sea Level Pressure (in) | Max | Average | Min |
|---|---|---|---|
| Sea Level Pressure | 28.02 | 27.88 | 27.66 |
| Date | Temp High/Low | Dew Pt High/Low | Humidity | Wind | Max Wind | Wind Gust | Pressure | Precip. | Condition |
|---|---|---|---|---|---|---|---|---|---|
| 5/1/2022 | 75 °F / 54 °F | 54 °F / 45 °F | 51 % | 17 mph | - | 27.92 in | 0 in | ||
| 5/2/2022 | 66 °F / 46 °F | 48 °F / 39 °F | 61 % | 16 mph | - | 27.71 in | 0 in | ||
| 5/3/2022 | 66 °F / 41 °F | 52 °F / 41 °F | 77 % | 16 mph | - | 27.69 in | 0 in | ||
| 5/4/2022 | 66 °F / 52 °F | 50 °F / 46 °F | 73 % | 15 mph | - | 27.84 in | 0 in | ||
| 5/5/2022 | 73 °F / 39 °F | 50 °F / 39 °F | 58 % | 9 mph | - | 27.99 in | 0 in | ||
| 5/6/2022 | 75 °F / 43 °F | 46 °F / 30 °F | 43 % | 10 mph | - | 28 in | 0 in | ||
| 5/7/2022 | 75 °F / 41 °F | 43 °F / 34 °F | 43 % | 8 mph | - | 27.96 in | 0 in | ||
| 5/8/2022 | 81 °F / 43 °F | 50 °F / 36 °F | 43 % | 8 mph | - | 27.93 in | 0 in | ||
| 5/9/2022 | 82 °F / 45 °F | 50 °F / 39 °F | 43 % | 7 mph | - | 27.97 in | 0 in | ||
| 5/10/2022 | 86 °F / 46 °F | 50 °F / 37 °F | 43 % | 8 mph | - | 27.98 in | 0 in | ||
| 5/11/2022 | 86 °F / 50 °F | 50 °F / 41 °F | 39 % | 8 mph | - | 27.91 in | 0 in | ||
| 5/12/2022 | 84 °F / 48 °F | 48 °F / 34 °F | 40 % | 10 mph | - | 27.92 in | 0 in | ||
| 5/13/2022 | 88 °F / 48 °F | 50 °F / 43 °F | 38 % | 9 mph | - | 27.95 in | 0 in | ||
| 5/14/2022 | 88 °F / 57 °F | 54 °F / 37 °F | 36 % | 16 mph | - | 27.87 in | 0 in | ||
| 5/15/2022 | 79 °F / 54 °F | 54 °F / 48 °F | 51 % | 17 mph | - | 27.88 in | 0 in | ||
| 5/16/2022 | 82 °F / 54 °F | 52 °F / 41 °F | 44 % | 12 mph | - | 27.97 in | 0 in | ||
| 5/17/2022 | 86 °F / 48 °F | 50 °F / 45 °F | 41 % | 8 mph | - | 27.98 in | 0 in | ||
| 5/18/2022 | 93 °F / 52 °F | 52 °F / 37 °F | 34 % | 12 mph | - | 27.87 in | 0 in | ||
| 5/19/2022 | 97 °F / 55 °F | 52 °F / 34 °F | 30 % | 12 mph | - | 27.89 in | 0 in | ||
| 5/20/2022 | 99 °F / 59 °F | 52 °F / 32 °F | 30 % | 29 mph | - | 27.93 in | 0 in | ||
| 5/21/2022 | 99 °F / 59 °F | 54 °F / 34 °F | 32 % | 17 mph | - | 27.9 in | 0 in | ||
| 5/22/2022 | 84 °F / 63 °F | 55 °F / 41 °F | 41 % | 16 mph | - | 27.81 in | 0 in | ||
| 5/23/2022 | 82 °F / 57 °F | 55 °F / 43 °F | 47 % | 16 mph | - | 27.74 in | 0 in | ||
| 5/24/2022 | 75 °F / 55 °F | 48 °F / 34 °F | 42 % | 17 mph | - | 27.7 in | 0 in | ||
| 5/25/2022 | 73 °F / 45 °F | 41 °F / 32 °F | 37 % | 12 mph | - | 27.95 in | 0 in | ||
| 5/26/2022 | 79 °F / 43 °F | 43 °F / 34 °F | 35 % | 9 mph | - | 28.02 in | 0 in | ||
| 5/27/2022 | 88 °F / 50 °F | 45 °F / 34 °F | 29 % | 7 mph | - | 27.93 in | 0 in | ||
| 5/28/2022 | 91 °F / 50 °F | 43 °F / 34 °F | 27 % | 13 mph | - | 27.8 in | 0 in | ||
| 5/29/2022 | 86 °F / 59 °F | 46 °F / 27 °F | 24 % | 15 mph | - | 27.66 in | 0 in | ||
| 5/30/2022 | 77 °F / 59 °F | 52 °F / 46 °F | 49 % | 12 mph | - | 27.72 in | 0 in | ||
| 5/31/2022 | 88 °F / 50 °F | 50 °F / 28 °F | 33 % | 16 mph | - | 27.78 in | 0 in |